| time (UTC) | temp C | wind direction | speed KPH | gust KPH | rain 1hr cm | rain 24hr cm | rain mn cm | humidity % | barometer mb |
| 20260505161437 | 10 | 180 | 3.2 | 8.0 | 0.00 | 0.00 | 0.00 | 80 | 1006.0 |
| 20260505160437 | 10 | 167 | 3.2 | 8.0 | 0.00 | 0.00 | 0.00 | 78 | 1005.9 |
| 20260505152435 | 10 | 309 | 3.2 | 8.0 | 0.00 | 0.00 | 0.00 | 72 | 1006.0 |
| 20260505151436 | 11 | 340 | 3.2 | 8.0 | 0.00 | 0.00 | 0.00 | 71 | 1005.6 |
| 20260505150430 | 11 | 333 | 3.2 | 8.0 | 0.00 | 0.00 | 0.00 | 72 | 1005.6 |
| 20260505140429 | 11 | 317 | 3.2 | 8.0 | 0.00 | 0.00 | 0.00 | 72 | 1005.0 |
| 20260505124421 | 11 | 87 | 3.2 | 11.3 | 0.00 | 0.00 | 0.00 | 75 | 1003.1 |
| 20260505123423 | 11 | 336 | 3.2 | 11.3 | 0.00 | 0.00 | 0.00 | 76 | 1003.2 |
| 20260505122422 | 11 | 333 | 3.2 | 14.5 | 0.00 | 0.00 | 0.00 | 78 | 1002.9 |
| 20260505121426 | 12 | 331 | 6.4 | 14.5 | 0.00 | 0.00 | 0.00 | 80 | 1002.8 |
| 20260505120417 | 12 | 320 | 3.2 | 14.5 | 0.00 | 0.00 | 0.00 | 79 | 1002.8 |
| 20260505115415 | 13 | 335 | 3.2 | 8.0 | 0.00 | 0.00 | 0.00 | 78 | 1002.4 |
| 20260505114418 | 13 | 241 | 3.2 | 14.5 | 0.00 | 0.00 | 0.00 | 78 | 1002.4 |
| 20260505113416 | 13 | 173 | 0.0 | 8.0 | 0.00 | 0.00 | 0.00 | 79 | 1002.0 |
| 20260505112413 | 13 | 188 | 0.0 | 6.4 | 0.00 | 0.00 | 0.00 | 80 | 1001.7 |
| 20260505111416 | 13 | 166 | 0.0 | 11.3 | 0.00 | 0.00 | 0.00 | 82 | 1001.4 |
| 20260505110412 | 13 | 124 | 0.0 | 8.0 | 0.00 | 0.00 | 0.00 | 83 | 1001.2 |
| 20260505101406 | 13 | 200 | 0.0 | 8.0 | 0.00 | 0.00 | 0.00 | 84 | 1000.2 |
| 20260505100408 | 13 | 229 | 3.2 | 11.3 | 0.00 | 0.00 | 0.00 | 83 | 1000.1 |
| 20260505095406 | 13 | 216 | 3.2 | 14.5 | 0.00 | 0.00 | 0.00 | 83 | 1000.1 |
| 20260505094404 | 14 | 220 | 3.2 | 11.3 | 0.00 | 0.00 | 0.00 | 82 | 1000.0 |
| 20260505093401 | 14 | 263 | 3.2 | 29.0 | 0.00 | 0.00 | 0.00 | 82 | 1000.0 |
| 20260505092402 | 14 | 237 | 3.2 | 14.5 | 0.00 | 0.00 | 0.00 | 81 | 1000.1 |
| 20260505091401 | 14 | 217 | 3.2 | 11.3 | 0.00 | 0.00 | 0.00 | 79 | 999.9 |
| 20260505090359 | 15 | 238 | 6.4 | 19.3 | 0.00 | 0.00 | 0.00 | 78 | 999.8 |
| 20260505085359 | 15 | 222 | 6.4 | 25.7 | 0.00 | 0.00 | 0.00 | 77 | 999.8 |
| 20260505084359 | 15 | 251 | 3.2 | 19.3 | 0.00 | 0.00 | 0.00 | 75 | 999.7 |
| 20260505083358 | 15 | 178 | 3.2 | 14.5 | 0.00 | 0.00 | 0.00 | 75 | 999.4 |
| 20260505082358 | 15 | 265 | 3.2 | 29.0 | 0.00 | 0.00 | 0.00 | 74 | 999.3 |
| 20260505081356 | 15 | 234 | 3.2 | 19.3 | 0.00 | 0.00 | 0.00 | 73 | 999.4 |
| 20260505080358 | 15 | 212 | 3.2 | 8.0 | 0.00 | 0.00 | 0.00 | 73 | 999.4 |
| 20260505075359 | 15 | 153 | 3.2 | 19.3 | 0.00 | 0.00 | 0.00 | 73 | 999.2 |
| 20260505074356 | 15 | 137 | 3.2 | 11.3 | 0.00 | 0.00 | 0.00 | 73 | 999.0 |
| 20260505073355 | 15 | 219 | 3.2 | 17.7 | 0.00 | 0.00 | 0.00 | 73 | 998.7 |
| 20260505072357 | 15 | 241 | 3.2 | 14.5 | 0.00 | 0.00 | 0.00 | 74 | 998.5 |
| 20260505071354 | 15 | 201 | 0.0 | 6.4 | 0.00 | 0.00 | 0.00 | 76 | 998.5 |
| 20260505070354 | 15 | 286 | 0.0 | 14.5 | 0.00 | 0.00 | 0.00 | 77 | 998.7 |
| 20260505065352 | 15 | 255 | 3.2 | 11.3 | 0.00 | 0.00 | 0.00 | 75 | 999.0 |
| 20260505064355 | 15 | 138 | 3.2 | 19.3 | 0.00 | 0.00 | 0.00 | 75 | 998.5 |
| 20260505063352 | 15 | 202 | 3.2 | 14.5 | 0.00 | 0.00 | 0.00 | 74 | 998.8 |
| 20260505062353 | 15 | 276 | 6.4 | 22.5 | 0.00 | 0.00 | 0.00 | 74 | 999.2 |
| 20260505061353 | 16 | 237 | 6.4 | 17.7 | 0.00 | 0.00 | 0.00 | 74 | 999.3 |
| 20260505060353 | 16 | 213 | 6.4 | 19.3 | 0.00 | 0.00 | 0.00 | 73 | 999.4 |
| 20260505055355 | 16 | 162 | 6.4 | 17.7 | 0.00 | 0.00 | 0.00 | 71 | 999.0 |
| 20260505054352 | 16 | 157 | 3.2 | 17.7 | 0.00 | 0.00 | 0.00 | 70 | 999.2 |
| 20260505053358 | 17 | 178 | 6.4 | 17.7 | 0.00 | 0.00 | 0.00 | 69 | 999.1 |
| 20260505052357 | 17 | 259 | 6.4 | 25.7 | 0.00 | 0.00 | 0.00 | 68 | 999.1 |
| 20260505051354 | 17 | 234 | 6.4 | 19.3 | 0.00 | 0.00 | 0.00 | 68 | 998.7 |
| 20260505050356 | 18 | 194 | 8.0 | 46.7 | 0.00 | 0.00 | 0.00 | 70 | 999.2 |
| 20260505041354 | 17 | 194 | 8.0 | 17.7 | 0.00 | 0.00 | 0.00 | 71 | 998.6 |
| 20260505040354 | 17 | 190 | 8.0 | 22.5 | 0.00 | 0.00 | 0.00 | 71 | 998.6 |
| 20260505035354 | 17 | 153 | 6.4 | 17.7 | 0.00 | 0.00 | 0.00 | 72 | 998.7 |
| 20260505034353 | 17 | 234 | 6.4 | 19.3 | 0.00 | 0.00 | 0.00 | 73 | 998.7 |
| 20260505033354 | 17 | 163 | 8.0 | 19.3 | 0.00 | 0.00 | 0.00 | 73 | 998.6 |
| 20260505032349 | 17 | 229 | 6.4 | 17.7 | 0.00 | 0.00 | 0.00 | 74 | 998.7 |
| 20260505031349 | 17 | 171 | 6.4 | 14.5 | 0.00 | 0.00 | 0.00 | 75 | 998.8 |
| 20260505030350 | 16 | 175 | 6.4 | 17.7 | 0.00 | 0.00 | 0.00 | 75 | 999.0 |
| 20260505025350 | 17 | 169 | 6.4 | 17.7 | 0.00 | 0.00 | 0.00 | 75 | 999.2 |
| 20260505024351 | 17 | 185 | 6.4 | 22.5 | 0.00 | 0.00 | 0.00 | 75 | 999.2 |
| 20260505023351 | 17 | 234 | 6.4 | 22.5 | 0.00 | 0.00 | 0.00 | 75 | 999.1 |
| 20260505022350 | 16 | 179 | 6.4 | 19.3 | 0.00 | 0.00 | 0.00 | 76 | 999.2 |
| 20260505021351 | 16 | 168 | 3.2 | 11.3 | 0.00 | 0.00 | 0.00 | 77 | 999.1 |
| 20260505020355 | 16 | 155 | 6.4 | 17.7 | 0.00 | 0.00 | 0.00 | 77 | 999.1 |
| 20260505015350 | 16 | 163 | 6.4 | 17.7 | 0.00 | 0.00 | 0.00 | 76 | 999.1 |
| 20260505014349 | 16 | 172 | 6.4 | 17.7 | 0.00 | 0.00 | 0.00 | 76 | 999.2 |
| 20260505013351 | 16 | 176 | 6.4 | 19.3 | 0.00 | 0.00 | 0.00 | 77 | 999.0 |
| 20260505012349 | 16 | 156 | 6.4 | 14.5 | 0.00 | 0.00 | 0.00 | 78 | 998.8 |
| 20260505011349 | 16 | 153 | 6.4 | 17.7 | 0.00 | 0.00 | 0.00 | 77 | 998.6 |
| 20260505010350 | 16 | 185 | 6.4 | 17.7 | 0.00 | 0.00 | 0.00 | 75 | 998.6 |
| 20260505005354 | 17 | 194 | 8.0 | 25.7 | 0.00 | 0.00 | 0.00 | 73 | 998.6 |
| 20260505004354 | 18 | 237 | 11.3 | 29.0 | 0.00 | 0.00 | 0.00 | 68 | 998.6 |
| 20260505003349 | 18 | 165 | 11.3 | 37.0 | 0.00 | 0.00 | 0.00 | 63 | 998.3 |
| 20260505002349 | 20 | 194 | 11.3 | 35.4 | 0.00 | 0.00 | 0.00 | 59 | 998.3 |
| 20260505001349 | 21 | 247 | 6.4 | 37.0 | 0.00 | 0.00 | 0.00 | 55 | 998.4 |
| 20260505000351 | 21 | 168 | 6.4 | 17.7 | 0.00 | 0.00 | 0.00 | 53 | 997.9 |
| 20260504235348 | 22 | 189 | 3.2 | 17.7 | 0.00 | 0.00 | 0.00 | 51 | 997.9 |
| 20260504234351 | 22 | 196 | 3.2 | 17.7 | 0.00 | 0.00 | 0.00 | 47 | 997.9 |
| 20260504233351 | 22 | 227 | 6.4 | 14.5 | 0.00 | 0.00 | 0.00 | 46 | 998.0 |
| 20260504232352 | 22 | 154 | 6.4 | 17.7 | 0.00 | 0.00 | 0.00 | 46 | 998.1 |
| 20260504231345 | 22 | 238 | 8.0 | 25.7 | 0.00 | 0.00 | 0.00 | 46 | 998.0 |
| 20260504230346 | 22 | 175 | 8.0 | 29.0 | 0.00 | 0.00 | 0.00 | 44 | 998.0 |
| 20260504225342 | 23 | 225 | 8.0 | 25.7 | 0.00 | 0.00 | 0.00 | 44 | 998.0 |
| 20260504224343 | 23 | 252 | 6.4 | 19.3 | 0.00 | 0.00 | 0.00 | 42 | 998.1 |
| 20260504223347 | 23 | 312 | 6.4 | 19.3 | 0.00 | 0.00 | 0.00 | 41 | 998.4 |
| 20260504222347 | 23 | 273 | 8.0 | 22.5 | 0.00 | 0.00 | 0.00 | 41 | 998.5 |
| 20260504221344 | 23 | 213 | 6.4 | 14.5 | 0.00 | 0.00 | 0.00 | 39 | 998.6 |
| 20260504220343 | 23 | 242 | 11.3 | 29.0 | 0.00 | 0.00 | 0.00 | 40 | 999.0 |
| 20260504215355 | 23 | 247 | 11.3 | 32.2 | 0.00 | 0.00 | 0.00 | 39 | 998.8 |
| 20260504214350 | 23 | 244 | 11.3 | 35.4 | 0.00 | 0.00 | 0.00 | 38 | 998.7 |
| 20260504213350 | 23 | 264 | 11.3 | 37.0 | 0.00 | 0.00 | 0.00 | 38 | 998.8 |
| 20260504212349 | 23 | 142 | 11.3 | 46.7 | 0.00 | 0.00 | 0.00 | 37 | 999.0 |
| 20260504211344 | 23 | 178 | 11.3 | 35.4 | 0.00 | 0.00 | 0.00 | 36 | 999.1 |
| 20260504210402 | 23 | 148 | 8.0 | 25.7 | 0.00 | 0.00 | 0.00 | 36 | 999.1 |
| 20260504205341 | 23 | 244 | 8.0 | 29.0 | 0.00 | 0.00 | 0.00 | 34 | 999.1 |
| 20260504204340 | 23 | 217 | 11.3 | 37.0 | 0.00 | 0.00 | 0.00 | 33 | 999.2 |
| 20260504203339 | 23 | 150 | 8.0 | 37.0 | 0.00 | 0.00 | 0.00 | 32 | 999.3 |
| 20260504202340 | 23 | 243 | 8.0 | 35.4 | 0.00 | 0.00 | 0.00 | 31 | 999.2 |
| 20260504201340 | 23 | 193 | 8.0 | 29.0 | 0.00 | 0.00 | 0.00 | 31 | 999.3 |
| 20260504200339 | 23 | 259 | 6.4 | 29.0 | 0.00 | 0.00 | 0.00 | 30 | 999.3 |
| 20260504195338 | 23 | 48 | 11.3 | 32.2 | 0.00 | 0.00 | 0.00 | 31 | 999.5 |
| 20260504194341 | 23 | 174 | 8.0 | 19.3 | 0.00 | 0.00 | 0.00 | 30 | 999.5 |
| 20260504193334 | 23 | 262 | 11.3 | 40.2 | 0.00 | 0.00 | 0.00 | 27 | 999.5 |
| 20260504192335 | 23 | 271 | 8.0 | 35.4 | 0.00 | 0.00 | 0.00 | 27 | 999.7 |
| 20260504191336 | 23 | 330 | 6.4 | 14.5 | 0.00 | 0.00 | 0.00 | 27 | 999.7 |
| 20260504190332 | 23 | 248 | 8.0 | 35.4 | 0.00 | 0.00 | 0.00 | 27 | 999.9 |
| 20260504185332 | 23 | 148 | 8.0 | 37.0 | 0.00 | 0.00 | 0.00 | 28 | 999.9 |
| 20260504184333 | 23 | 230 | 6.4 | 25.7 | 0.00 | 0.00 | 0.00 | 29 | 1000.1 |
| 20260504183332 | 23 | 253 | 8.0 | 29.0 | 0.00 | 0.00 | 0.00 | 30 | 1000.2 |
| 20260504182331 | 23 | 235 | 11.3 | 29.0 | 0.00 | 0.00 | 0.00 | 33 | 1000.1 |
| 20260504181330 | 23 | 257 | 11.3 | 35.4 | 0.00 | 0.00 | 0.00 | 33 | 1000.2 |
| 20260504180331 | 23 | 205 | 8.0 | 29.0 | 0.00 | 0.00 | 0.00 | 33 | 1000.5 |
| 20260504175332 | 22 | 269 | 8.0 | 32.2 | 0.00 | 0.00 | 0.00 | 34 | 1000.4 |
| 20260504174329 | 22 | 155 | 11.3 | 35.4 | 0.00 | 0.00 | 0.00 | 36 | 1000.7 |
| 20260504173332 | 22 | 190 | 8.0 | 29.0 | 0.00 | 0.00 | 0.00 | 37 | 1000.9 |
| 20260504172333 | 22 | 152 | 8.0 | 32.2 | 0.00 | 0.00 | 0.00 | 37 | 1000.9 |
| 20260504171332 | 22 | 254 | 8.0 | 25.7 | 0.00 | 0.00 | 0.00 | 36 | 1001.2 |
| 20260504170335 | 22 | 321 | 6.4 | 25.7 | 0.00 | 0.00 | 0.00 | 36 | 1001.3 |